Volver al catálogo

COSMOS 2251 DEB

ActivoLEO
NORAD 47073·DEBRIS·🇷🇺 Russia

Lanzado Jun 16, 1993 desde Plesetsk Cosmodrome

Loading…

Próximos Pases (próximas 24 horas)

TLE

ObsoletoSource: Space-Track

Época: Aug 16, 2026, 10:59 UTC

1 47073U 93036BYD 26228.45814955  .00000348  00000-0  20486-3 0  9991
2 47073  74.0832 132.4380 0160353 110.9689 250.8690 14.05141773638268

Sigue COSMOS 2251 DEB en tiempo real con AllMySat

Download on the App Store